sat.trackr.live / text

‹ back to catalog

STARLINK-3813

NORAD 52482 · 2022-049AH

PAYLOAD ACTIVE UNKNOWN

§ Identity

Operator
Country
US
Launch date
2022-05-06
Launch site
AFETR
Launch vehicle
Mass (kg)
RCS (m²)

Purposes: comms

External: N2YO · Heavens-Above · Gunter

§ Orbital elements

Epoch: 2026-05-25T01:56:56.779872Z

Period
95.44 min
Inclination
53.2124°
Eccentricity
0.0001425
Mean motion
15.08843613 rev/d
Perigee alt
538.7 km
Apogee alt
540.7 km
Semi-major
6,917.9 km
B*
-1.4679e-4
RAAN
66.1850°
Arg perigee
97.5879°
Mean anomaly
262.5275°
Rev number
22,392

§ Raw data

STARLINK-38131 52482U 22049AH  26145.08121273 -.00002624  00000+0 -14679-3 0  99952 52482  53.2124  66.1850 0001425  97.5879 262.5275 15.08843613223929

JSON: /api/v1/satellites/52482 · /tle

For live sub-satellite position, see the globe view (requires WebGL).

§ Visibility from observer

Set your observer location to see the next 7 days of passes ≥ 10°. The values pass through the URL so the page stays shareable.

No JS? Fill the form by hand. The geolocation button needs JavaScript.